Notices

What's New in latest Release from April 7th, 2021:

- Updated Glossary, including Speed of Maximum Gust, and Total Hourly Precipitation

- Updated national and regional climate services offices contacts and prices information

- Addition of station inventory lists for 1981-2010, 1971-2000, and 1961-1990 Normals.

If you haven't already, please take our survey and provide feedback about our website: https://eccc.sondage-survey.ca/f/LanguageSelection.aspx?s=442ca660-fcf1-47c0-95a9-59707d6fd709

Hourly Data Report for November 10, 2019

SHEARWATER RCS
NOVA SCOTIA
Current Station Operator: ECCC - MSC

44°37'47.000" N
63°30'48.000" W
24.00 m
8205092
71264
AAW

Download Data

Hourly Data (November 2019)
Hourly Data Report for November 10, 2019
TIME
LST
Temp Definition
°C
Dew Point Definition
°C
Rel Hum Definition
%
Precip. Amount Definition
mm

Wind Dir Definition
10's deg

Wind Spd Definition
km/h
Visibility Definition
km
Stn Press Definition
kPa
Hmdx Definition


Wind Chill Definition


Weather Definition


00:00 -0.2 -4.4 73 0.0 27 6   102.19   -2 LegendNANA
01:00 1.1 -4.0 69 0.0 24 8   102.15     LegendNANA
02:00 1.2 -3.6 70 0.0 25 5   102.12     LegendNANA
03:00 -0.5 -4.6 73 0.0 10 3   102.05   -1 LegendNANA
04:00 -0.4 -3.6 79 0.0 14 6   102.01   -2 LegendNANA
05:00 0.4 -2.1 84 0.0 0 1   101.99     LegendNANA
06:00 1.0 -1.3 84 0.0 6 7   101.99     LegendNANA
07:00 1.3 -1.2 84 0.0 8 4   101.97     LegendNANA
08:00 1.8 -1.0 82 0.0 14 5   101.96     LegendNANA
09:00 4.9 -1.3 64 0.0 19 9   101.98     LegendNANA
10:00 6.0 -0.2 65 0.0 18 17   101.92     LegendNANA
11:00 6.4 0.9 68 0.0 17 16   101.85     LegendNANA
12:00 7.3 -0.1 59 0.0 19 18   101.75     LegendNANA
13:00 7.7 -0.2 58 0.0 20 21   101.64     LegendNANA
14:00 7.8 0.0 58 0.0 20 24   101.58     LegendNANA
15:00 8.4 0.5 57 0.0 20 24   101.53     LegendNANA
16:00 7.8 0.6 60 0.0 20 23   101.47     LegendNANA
17:00 7.4 2.0 68 0.0 20 16   101.46     LegendNANA
18:00 7.8 2.2 68 0.0 21 18   101.42     LegendNANA
19:00 7.6 3.6 76 0.0 21 20   101.45     LegendNANA
20:00 7.9 3.4 73 0.0 19 20   101.43     LegendNANA
21:00 8.6 4.0 73 0.0 20 21   101.39     LegendNANA
22:00 8.7 4.8 76 0.0 20 19   101.33     LegendNANA
23:00 8.8 5.2 78 0.0 20 16   101.32     LegendNANA

Notes on Data Quality.

Legend

  • E = Estimated
  • M = Missing
  • NA = Not Available*
  • [empty] = Indicates an unobserved value
Date modified: